Printer-friendly version
Follow the MPC on Twitter Follow the MPC on Facebook The MPC blog
Minor Planet Center

MPEC 2004-X49 : COMET P/2004 V5 = 2003 YM159 (LINEAR-HILL)

The following Minor Planet Electronic Circular may be linked-to from your own Web pages, but must not otherwise be redistributed electronically.

A form allowing access to any MPEC is at the bottom of this page.


Read MPEC 2004-X48 Read MPEC 2004-X50


M.P.E.C. 2004-X49                                Issued 2004 Dec. 11, 21:20 UT

     The Minor Planet Electronic Circulars contain information on unusual
         minor planets and routine data on comets.  They are published
   on behalf of Commission 20 of the International Astronomical Union by the
          Minor Planet Center, Smithsonian Astrophysical Observatory,
                          Cambridge, MA 02138, U.S.A.

                  Supported in part by the Brinson Foundation
             Prepared using the Tamkin Foundation Computer Network

                              MPC@CFA.HARVARD.EDU
          URL http://cfa-www.harvard.edu/iau/mpc.html  ISSN 1523-6714

                  COMET P/2004 V5 = 2003 YM159 (LINEAR-HILL)

Observations:
    PK04V05a  C2004 12 05.96733 09 44 37.36 +36 23 08.2          17.8 N EX049A32
    PK04V05a  C2004 12 05.97714 09 44 37.53 +36 23 10.1          18.1 N EX049A32
    PK04V05a  C2004 12 08.01847 09 45 04.50 +36 31 57.0                 EX049246
    PK04V05a  C2004 12 08.02068 09 45 04.52 +36 31 57.4                 EX049246
    PK04V05a  C2004 12 08.02139 09 45 04.56 +36 31 57.4                 EX049246
    PK04V05a  C2004 12 08.02244 09 45 04.56 +36 31 57.6                 EX049246
    PK04V05a  C2004 12 08.02337 09 45 04.58 +36 31 57.9                 EX049246
    PK04V05a  C2004 12 08.02554 09 45 04.59 +36 31 58.5                 EX049246
    PK04V05a  C2004 12 08.02647 09 45 04.60 +36 31 58.8                 EX049246
    PK04V05a  C2004 12 08.02856 09 45 04.63 +36 31 59.1                 EX049246
    PK04V05a  C2004 12 08.45354 09 45 09.56 +36 33 51.6          18.2 N EX049850
    PK04V05a  C2004 12 08.46257 09 45 09.65 +36 33 54.1          18.2 N EX049850
    PK04V05a  C2004 12 08.47050 09 45 09.76 +36 33 55.6          17.9 N EX049850
    PK04V05a  C2004 12 08.48252 09 45 09.81 +36 33 59.6          17.9 N EX049850
    PK04V05a   2004 12 08.78090 09 45 13.32 +36 35 17.9          18.0 T EX049372
    PK04V05a   2004 12 08.82465 09 45 13.77 +36 35 29.7                 EX049372
    PK04V05a  C2004 12 09.04183 09 45 16.32 +36 36 27.1                 EX049246
    PK04V05a  C2004 12 09.04253 09 45 16.34 +36 36 27.2                 EX049246
    PK04V05a  C2004 12 09.04340 09 45 16.37 +36 36 27.5                 EX049246
    PK04V05a  C2004 12 09.04413 09 45 16.38 +36 36 27.5                 EX049246
    PK04V05a  C2004 12 09.04505 09 45 16.38 +36 36 27.8                 EX049246
    PK04V05a  C2004 12 09.04586 09 45 16.41 +36 36 27.9                 EX049246
    PK04V05a  C2004 12 09.04660 09 45 16.41 +36 36 28.5                 EX049246
    PK04V05a  C2004 12 10.99899 09 45 35.97 +36 45 13.5          17.6 N EX049213
    PK04V05a  C2004 12 11.00080 09 45 35.99 +36 45 14.2          17.6 N EX049213
    PK04V05a  C2004 12 11.00260 09 45 36.01 +36 45 14.9          17.6 N EX049213
    PK04V05a  C2004 12 11.00622 09 45 36.04 +36 45 15.7          17.6 N EX049213
    PK04V05a  C2004 12 11.08370 09 45 36.67 +36 45 37.7                 EX049J78
    PK04V05a  C2004 12 11.11762 09 45 36.80 +36 45 46.8                 EX049246
    PK04V05a  C2004 12 11.11912 09 45 36.81 +36 45 47.1                 EX049246
    PK04V05a  C2004 12 11.11976 09 45 36.82 +36 45 47.4                 EX049246
    PK04V05a  C2004 12 11.12056 09 45 36.86 +36 45 47.4                 EX049246
    PK04V05a  C2004 12 11.12184 09 45 36.89 +36 45 47.6                 EX049246
    PK04V05a  C2004 12 11.14860 09 45 37.12 +36 45 55.0                 EX049246
    PK04V05a  C2004 12 11.14909 09 45 37.18 +36 45 54.7                 EX049246
    PK04V05a  C2004 12 11.14970 09 45 37.23 +36 45 55.5                 EX049246
    PK04V05a  C2004 12 11.17543 09 45 37.43 +36 46 01.9          18.6 N EX049170
    PK04V05a  C2004 12 11.18887 09 45 37.51 +36 46 05.9          18.5 N EX049170
    PK04V05a  C2004 12 11.19447 09 45 37.54 +36 46 07.3          18.6 N EX049170
    PK04V05a  C2004 12 11.19671 09 45 37.57 +36 46 08.0          18.6 N EX049170
    PK04V05b  C2004 12 05.96733 09 44 28.06 +36 23 49.9          18.1 N EX049A32
    PK04V05b  C2004 12 05.97714 09 44 28.18 +36 23 52.5          18.5 N EX049A32
    PK04V05b  C2004 12 08.01847 09 44 55.12 +36 32 38.7                 EX049246
    PK04V05b  C2004 12 08.02068 09 44 55.15 +36 32 39.1                 EX049246
    PK04V05b  C2004 12 08.02139 09 44 55.16 +36 32 39.7                 EX049246
    PK04V05b  C2004 12 08.02244 09 44 55.17 +36 32 40.0                 EX049246
    PK04V05b  C2004 12 08.02337 09 44 55.19 +36 32 40.1                 EX049246
    PK04V05b  C2004 12 08.02554 09 44 55.20 +36 32 40.7                 EX049246
    PK04V05b  C2004 12 08.02647 09 44 55.24 +36 32 41.1                 EX049246
    PK04V05b  C2004 12 08.02856 09 44 55.25 +36 32 41.4                 EX049246
    PK04V05b  C2004 12 08.45354 09 45 00.13 +36 34 34.2          18.9 N EX049850
    PK04V05b  C2004 12 08.46257 09 45 00.24 +36 34 36.8          18.4 N EX049850
    PK04V05b  C2004 12 08.47050 09 45 00.66 +36 34 38.8          19.5 N EX049850
    PK04V05b  C2004 12 09.04183 09 45 06.91 +36 37 09.6                 EX049246
    PK04V05b  C2004 12 09.04253 09 45 06.92 +36 37 09.9                 EX049246
    PK04V05b  C2004 12 09.04340 09 45 06.92 +36 37 10.1                 EX049246
    PK04V05b  C2004 12 09.04413 09 45 06.92 +36 37 10.2                 EX049246
    PK04V05b  C2004 12 09.04505 09 45 06.93 +36 37 10.7                 EX049246
    PK04V05b  C2004 12 09.04586 09 45 06.93 +36 37 10.9                 EX049246
    PK04V05b  C2004 12 09.04660 09 45 06.96 +36 37 11.1                 EX049246
    PK04V05b  C2004 12 11.00260 09 45 26.51 +36 45 58.5          18.4 N EX049213
    PK04V05b  C2004 12 11.00441 09 45 26.52 +36 45 58.9          18.4 N EX049213
    PK04V05b  C2004 12 11.00622 09 45 26.54 +36 45 59.6          18.4 N EX049213
    PK04V05b  C2004 12 11.08370 09 45 27.08 +36 46 20.4                 EX049J78
    PK04V05b  C2004 12 11.11762 09 45 27.39 +36 46 29.7                 EX049246
    PK04V05b  C2004 12 11.11912 09 45 27.38 +36 46 29.9                 EX049246
    PK04V05b  C2004 12 11.11976 09 45 27.39 +36 46 30.1                 EX049246
    PK04V05b  C2004 12 11.12056 09 45 27.40 +36 46 30.4                 EX049246
    PK04V05b  C2004 12 11.12184 09 45 27.45 +36 46 30.8                 EX049246
    PK04V05b  C2004 12 11.14860 09 45 27.67 +36 46 38.2                 EX049246
    PK04V05b  C2004 12 11.14909 09 45 27.70 +36 46 38.5                 EX049246
    PK04V05b  C2004 12 11.14970 09 45 27.92 +36 46 41.5                 EX049246
    PK04V05b  C2004 12 11.18663 09 45 27.96 +36 46 48.7          19.0 N EX049170
    PK04V05b  C2004 12 11.18887 09 45 28.00 +36 46 49.0          19.2 N EX049170
    PK04V05b  C2004 12 11.19447 09 45 28.05 +36 46 50.5          19.3 N EX049170
    PK04V05b  C2004 12 11.19671 09 45 28.06 +36 46 51.2          19.2 N EX049170

Observer details:
170 Observatorio de Begues.  Observer J. Manteca.  0.36-m f/10
    Schmidt-Cassegrain + CCD.
213 Observatorio Montcabre.  Observer R. Naves.  Measurer M. Campas.  0.30-m
    f/6.6 Schmidt-Cassegrain + CCD.
246 Klet Observatory-KLENOT.  Observers J. Ticha, M. Tichy, M. Kocer.
    Measurer M. Tichy.  1.06-m KLENOT Telescope + CCD.
372 Geisei.  Observer T. Seki.  0.60-m f/3.5 reflector.
850 Cordell-Lorenz Observatory, Sewanee.  Observer D. T. Durig.  0.30-m f/5.86
    Schmidt-Cassegrain + CCD.
A32 Panker.  Observer H. Denzau.  0.36-m f/5.5 Schmidt-Cassegrain + CCD.
J78 Murcia.  Observer J. Sanchez.  0.25-m f/8.9 Schmidt-Cassegrain + CCD.

Orbital elements:
    P/2004 V5-A (LINEAR-Hill)
Epoch 2005 Mar. 11.0 TT = JDT 2453440.5
T 2005 Feb. 28.76294 TT                                 MPC
q   4.4108087            (2000.0)            P               Q
n   0.04396745     Peri.   87.69258     -0.67199513     -0.69857833
a   7.9502693      Node    47.85907     +0.47596168     -0.66168358
e   0.4452001      Incl.   19.35821     +0.56734735     -0.27232912
P  22.42
From 132 observations 2003 Dec. 17-2004 Dec. 11, mean residual 0".59.

Brian G. Marsden             (C) Copyright 2004 MPC           M.P.E.C. 2004-X49

Read MPEC 2004-X48 Read MPEC 2004-X50


MPEC number:

Enter an MPEC number in one of the following forms:

  • 1997-B01 (the full form)
  • J97B01 (the packed version of the full form)
  • B01 (the abbreviated form)

Valid HTML 4.01!